******************************************************************************* JPL/HORIZONS 24P/Schaumasse 2025-Dec-12 17:52:15 Rec #:90000355 (+COV) Soln.date: 2025-Dec-03_11:54:58 # obs: 1268 (2000-2025) IAU76/J2000 helio. ecliptic osc. elements (au, days, deg., period=Julian yrs): EPOCH= 2458732.5 ! 2019-Sep-06.0000000 (TDB) RMSW= n.a. EC= .7062422966115731 QR= 1.197203708217311 TP= 2458074.9585950482 OM= 79.61788252108362 W= 57.81739657771237 IN= 11.74191230112471 A= 4.075480215183616 MA= 78.76966445031181 ADIST= 6.953756722149922 PER= 8.2276609358084 N= .119794227 ANGMOM= .024585884 DAN= 1.48436 DDN= 3.27442 L= 136.8865982 B= 9.917863799999999 MOID= .27487499 TP= 2017-Nov-17.4585950482 Comet physical (GM= km^3/s^2; RAD= km): GM= n.a. RAD= 1.3 M1= 14.6 M2= n.a. k1= 10.5 k2= n.a. PHCOF= n.a. Comet non-gravitational force model (AMRAT=m^2/kg;A1-A3=au/d^2;DT=days;R0=au): AMRAT= 0. DT= 0. A1= 1.345408856869E-9 A2= -3.469249233603E-10 A3= 0. Standard model: ALN= .1112620426 NK= 4.6142 NM= 2.15 NN= 5.093 R0= 2.808 COMET comments 1: soln ref.= JPL#K264/10, data arc: 2000-10-07 to 2025-12-02 2: k1=10.5; ******************************************************************************* ******************************************************************************* Ephemeris / WWW_USER Fri Dec 12 17:52:15 2025 Pasadena, USA / Horizons ******************************************************************************* Target body name: 24P/Schaumasse {source: JPL#K264/10} Center body name: Mars (499) {source: mar099} Center-site name: BODYCENTRIC ******************************************************************************* Start time : A.D. 2100-Oct-02 00:00:00.0000 UT Stop time : A.D. 2100-Oct-04 00:00:00.0000 UT Step-size : 1440 minutes ******************************************************************************* Target pole/equ : undefined Target radii : 1.3 km Center geodetic : 0.0, 0.0, -3396.19 {W-lon(deg),Lat(deg),Alt(km)} Center cylindric: 0.0, 0.0, 0.0 {W-lon(deg),Dxy(km),Dz(km)} Center pole/equ : IAU_MARS {West-longitude positive} Center radii : 3396.19, 3396.19, 3376.2 km {Equator_a, b, pole_c} Target primary : Sun Vis. interferer : PHOBOS (R_eq= 13.000) km {source: mar099} Rel. light bend : Sun {source: DE441} Rel. lght bnd GM: 1.3271E+11 km^3/s^2 Small-body perts: Yes {source: SB441-N16} Atmos refraction: NO (AIRLESS) RA format : HMS Time format : CAL Calendar mode : Mixed Julian/Gregorian EOP file : eop.251212.p260310 EOP coverage : DATA-BASED 1962-JAN-20 TO 2025-DEC-12. PREDICTS-> 2026-MAR-09 Units conversion: 1 au= 149597870.700 km, c= 299792.458 km/s, 1 day= 86400.0 s Table cut-offs 1: Elevation (-90.0deg=NO ),Airmass n.a. , Daylight (NO ) Table cut-offs 2: Solar elongation ( 0.0,180.0=NO ),Local Hour Angle( 0.0=NO ) Table cut-offs 3: RA/DEC angular rate ( 0.0=NO ) ******************************************************************************* Initial IAU76/J2000 heliocentric ecliptic osculating elements (au, days, deg.): EPOCH= 2458732.5 ! 2019-Sep-06.0000000 (TDB) RMSW= n.a. EC= .7062422966115731 QR= 1.197203708217311 TP= 2458074.9585950482 OM= 79.61788252108362 W= 57.81739657771237 IN= 11.74191230112471 Equivalent ICRF heliocentric cartesian coordinates (au, au/d): X= 1.588759198521364E+00 Y=-4.417916225816956E+00 Z=-2.475117625443796E+00 VX= 5.571815008638440E-03 VY=-1.818645102511666E-03 VZ=-2.132851598102734E-03 Comet physical (GM= km^3/s^2; RAD= km): GM= n.a. RAD= 1.3 M1= 14.6 M2= n.a. k1= 10.5 k2= n.a. PHCOF= n.a. Comet non-gravitational force model (AMRAT=m^2/kg;A1-A3=au/d^2;DT=days;R0=au): AMRAT= 0. DT= 0. A1= 1.345408856869E-9 A2= -3.469249233603E-10 A3= 0. Standard model: ALN= .1112620426 NK= 4.6142 NM= 2.15 NN= 5.093 R0= 2.808 ******************************************************************************* Date__(UT)__HR:MN delta deldot *************************************************** $$SOE 2100-Oct-02 00:00 0.26457936081370 -11.9638789 2100-Oct-03 00:00 0.25774030002942 -11.7157892 2100-Oct-04 00:00 0.25104867645506 -11.4531716 $$EOE ******************************************************************************* Column meaning: TIME Times PRIOR to 1962 are UT1, a mean-solar time closely related to the prior but now-deprecated GMT. Times AFTER 1962 are in UTC, the current civil or "wall-clock" time-scale. UTC is kept within 0.9 seconds of UT1 using integer leap-seconds for 1972 and later years. Conversion from the internal Barycentric Dynamical Time (TDB) of solar system dynamics to the non-uniform civil UT time-scale requested for output has not been determined for UTC times after the next July or January 1st. Therefore, the last known leap-second is used as a constant over future intervals. Time tags refer to the UT time-scale conversion from TDB on Earth regardless of observer location within the solar system, although clock rates may differ due to the local gravity field and no analog to "UT" may be defined for that location. Any 'b' symbol in the 1st-column denotes a B.C. date. First-column blank (" ") denotes an A.D. date. CALENDAR SYSTEM Mixed calendar mode was active such that calendar dates after AD 1582-Oct-15 (if any) are in the modern Gregorian system. Dates prior to 1582-Oct-5 (if any) are in the Julian calendar system, which is automatically extended for dates prior to its adoption on 45-Jan-1 BC. The Julian calendar is useful for matching historical dates. The Gregorian calendar more accurately corresponds to the Earth's orbital motion and seasons. A "Gregorian-only" calendar mode is available if such physical events are the primary interest. NOTE: "n.a." in output means quantity "not available" at the print-time. 'delta deldot' = Apparent range ("delta", light-time aberrated) and range-rate ("delta-dot") of the target center relative to the observer. A positive "deldot" means the target center is moving away from the observer, negative indicates movement toward the observer. Units: AU and KM/S Computations by ... Solar System Dynamics Group, Horizons On-Line Ephemeris System 4800 Oak Grove Drive, Jet Propulsion Laboratory Pasadena, CA 91109 USA General site: https://ssd.jpl.nasa.gov/ Mailing list: https://ssd.jpl.nasa.gov/email_list.html System news : https://ssd.jpl.nasa.gov/horizons/news.html User Guide : https://ssd.jpl.nasa.gov/horizons/manual.html Connect : browser https://ssd.jpl.nasa.gov/horizons/app.html#/x API https://ssd-api.jpl.nasa.gov/doc/horizons.html command-line telnet ssd.jpl.nasa.gov 6775 e-mail/batch https://ssd.jpl.nasa.gov/ftp/ssd/horizons_batch.txt scripts https://ssd.jpl.nasa.gov/ftp/ssd/SCRIPTS Author : Jon.D.Giorgini@jpl.nasa.gov ******************************************************************************* !$$SOF CENTER = '@499' COMMAND = 'DES=24P;CAP' QUANTITIES = '20' START_TIME = '2100-Oct-02' STEP_SIZE = '1 day' STOP_TIME = '2100-Oct-04'